This demonstration page uses our WeatherBlox Daily Observations layout. Learn more.

Left ArrowRight Arrow

44.31136, -96.79839

Hourly Observations for December 1, 2022

Temp ( °F °C ) Dew Point ( °F °C ) Humidity (%) Winds ( mph kmh ) Pressure ( in mb ) Visibility ( mi km ) Precip ( " mm )
12:56 am 00:56 Clear 11 -11.7 6 -14.4 80 80 SE 14 22 30.32 1027 10 16 0.00 0.00
1:56 am 01:56 Clear 13 -10.6 7 -13.9 77 77 SE 15 24 30.28 1025 10 16 0.00 0.00
2:56 am 02:56 Clear 13 -10.6 7 -13.9 77 77 SE 17 28 30.25 1025 10 16 0.00 0.00
3:56 am 03:56 Clear 16 -8.9 8 -13.3 70 70 SSE 18 30 30.20 1023 10 16 0.00 0.00
4:56 am 04:56 Clear 17 -8.3 9 -12.8 70 70 SSE 18 30 30.17 1022 10 16 0.00 0.00
5:56 am 05:56 Clear 19 -7.2 11 -11.7 70 70 SSE 23 37 30.11 1020 10 16 0.00 0.00
6:56 am 06:56 Clear 19 -7.2 12 -11.1 74 74 SSE 20 31 30.09 1019 10 16 0.00 0.00
7:56 am 07:56 Sunny 19 -7.2 12 -11.1 74 74 SSE 22 35 30.06 1018 10 16 0.00 0.00
8:56 am 08:56 Sunny 22 -5.6 14 -10 71 71 S 23 37 30.04 1017 10 16 0.00 0.00
9:56 am 09:56 Sunny 27 -2.8 16 -8.9 63 63 S 22 35 30.01 1016 10 16 0.00 0.00
10:56 am 10:56 Sunny 30 -1.1 18 -7.8 60 60 S 26 43 29.98 1015 10 16 0.00 0.00
11:56 am 11:56 Sunny 32 0 20 -6.7 61 61 S 26 43 29.92 1013 10 16 0.00 0.00
12:56 pm 12:56 Sunny 32 0 19 -7.2 58 58 S 22 35 29.91 1013 10 16 0.00 0.00
1:56 pm 13:56 Sunny 34 1.1 21 -6.1 59 59 S 23 37 29.88 1012 10 16 0.00 0.00
2:56 pm 14:56 Sunny 35 1.7 22 -5.6 58 58 S 22 35 29.86 1011 10 16 0.00 0.00
3:56 pm 15:56 Sunny 35 1.7 24 -4.4 64 64 S 15 24 29.85 1011 10 16 0.00 0.00
4:56 pm 16:56 Clear 33 0.6 24 -4.4 69 69 S 14 22 29.85 1011 10 16 0.00 0.00
5:56 pm 17:56 Clear 32 0 25 -3.9 75 75 S 12 19 29.83 1010 10 16 0.00 0.00
7:56 pm 19:56 Clear 33 0.6 26 -3.3 75 75 S 9 15 29.82 1010 10 16 0.00 0.00
8:56 pm 20:56 Clear 30 -1.1 25 -3.9 81 81 SSE 12 19 29.79 1009 10 16 0.00 0.00
9:56 pm 21:56 Clear 35 1.7 25 -3.9 66 66 S 13 20 29.76 1008 10 16 0.00 0.00
10:56 pm 22:56 Clear 35 1.7 25 -3.9 66 66 S 13 20 29.72 1007 10 16 0.00 0.00
11:56 pm 23:56 Clear 36 2.2 24 -4.4 62 62 S 15 24 29.69 1006 10 16 0.00 0.00

Powered by AerisWeather